Time,TemperatureF,DewpointF,PressureIn,WindDirection,WindDirectionDegrees,WindSpeedMPH,WindSpeedGustMPH,Humidity,HourlyPrecipIn,Conditions,Clouds,dailyrainin,SoftwareType,DateUTC
2013-10-08 10:25:00,57.7,52.9,30.17,North,352,0.0,0.0,84,0.00,CLR,FEW,0.00,WeatherDisplay:10.37,2013-10-08 14:25:00,
2013-10-08 10:30:00,57.7,52.9,30.17,North,357,0.0,0.0,84,0.00,CLR,FEW,0.00,WeatherDisplay:10.37,2013-10-08 14:30:00,
2013-10-08 10:49:00,63.0,52.2,30.23,NE,40,1.0,3.0,68,0.00,CLR,FEW,0.00,WeatherDisplay:10.37,2013-10-08 14:49:00,
2013-10-08 10:59:00,63.1,52.8,30.23,NE,40,0.0,0.0,69,0.00,CLR,FEW,0.00,WeatherDisplay:10.37,2013-10-08 14:59:00,
2013-10-08 11:04:00,63.7,52.1,30.23,NE,40,0.0,0.0,66,0.00,CLR,FEW,0.00,WeatherDisplay:10.37,2013-10-08 15:04:00,
2013-10-08 11:09:00,64.2,52.6,30.23,NE,40,0.0,0.0,66,0.00,CLR,FEW,0.00,WeatherDisplay:10.37,2013-10-08 15:09:00,
2013-10-08 11:19:00,66.2,51.4,30.23,NE,40,0.0,0.0,59,0.00,CLR,FEW,0.00,WeatherDisplay:10.37,2013-10-08 15:19:00,
2013-10-08 11:29:00,64.6,50.4,30.23,NE,40,0.0,0.0,60,0.00,CLR,FEW,0.00,WeatherDisplay:10.37,2013-10-08 15:29:00,
2013-10-08 11:39:00,65.7,52.3,30.23,NE,40,0.0,0.0,62,0.00,CLR,FEW,0.00,WeatherDisplay:10.37,2013-10-08 15:39:00,
2013-10-08 11:44:00,64.9,50.3,30.23,NE,40,0.0,0.0,59,0.00,CLR,FEW,0.00,WeatherDisplay:10.37,2013-10-08 15:44:00,
2013-10-08 11:49:00,64.6,50.8,30.23,NE,40,0.0,0.0,61,0.00,CLR,FEW,0.00,WeatherDisplay:10.37,2013-10-08 15:49:00,
2013-10-08 11:59:00,64.4,50.2,30.23,NE,40,0.0,0.0,60,0.00,CLR,FEW,0.00,WeatherDisplay:10.37,2013-10-08 15:59:00,
2013-10-08 12:04:00,63.9,48.8,30.23,NE,40,0.0,0.0,58,0.00,CLR,FEW,0.00,WeatherDisplay:10.37,2013-10-08 16:04:00,
2013-10-08 12:09:00,63.9,49.7,30.23,NE,40,0.0,0.0,60,0.00,CLR,FEW,0.00,WeatherDisplay:10.37,2013-10-08 16:09:00,
2013-10-08 12:19:00,64.6,49.9,30.23,NE,40,0.0,0.0,59,0.00,CLR,FEW,0.00,WeatherDisplay:10.37,2013-10-08 16:19:00,
2013-10-08 12:29:00,64.6,49.9,30.20,NE,40,0.0,0.0,59,0.00,CLR,FEW,0.00,WeatherDisplay:10.37,2013-10-08 16:29:00,
2013-10-08 12:39:00,65.3,50.6,30.23,NE,40,0.0,0.0,59,0.00,CLR,FEW,0.00,WeatherDisplay:10.37,2013-10-08 16:39:00,
2013-10-08 12:49:00,65.7,49.0,30.20,NE,40,0.0,0.0,55,0.00,CLR,FEW,0.00,WeatherDisplay:10.37,2013-10-08 16:49:00,
2013-10-08 12:54:00,66.7,51.0,30.20,NE,40,0.0,0.0,57,0.00,CLR,FEW,0.00,WeatherDisplay:10.37,2013-10-08 16:54:00,
2013-10-08 12:59:00,66.6,49.4,30.20,NE,40,0.0,0.0,54,0.00,CLR,FEW,0.00,WeatherDisplay:10.37,2013-10-08 16:59:00,
2013-10-08 13:04:00,67.6,50.9,30.20,NE,40,0.0,0.0,55,0.00,CLR,FEW,0.00,WeatherDisplay:10.37,2013-10-08 17:04:00,
2013-10-08 13:09:00,67.1,50.9,30.20,NE,40,0.0,0.0,56,0.00,CLR,FEW,0.00,WeatherDisplay:10.37,2013-10-08 17:09:00,
2013-10-08 13:19:00,65.7,49.0,30.20,NE,40,0.0,0.0,55,0.00,CLR,FEW,0.00,WeatherDisplay:10.37,2013-10-08 17:19:00,
2013-10-08 13:24:00,65.8,49.7,30.20,NE,40,0.0,0.0,56,0.00,CLR,FEW,0.00,WeatherDisplay:10.37,2013-10-08 17:24:00,
2013-10-08 13:29:00,66.4,50.7,30.20,NE,40,0.0,0.0,57,0.00,CLR,FEW,0.00,WeatherDisplay:10.37,2013-10-08 17:29:00,
2013-10-08 13:39:00,66.0,49.4,30.20,NE,40,0.0,0.0,55,0.00,CLR,FEW,0.00,WeatherDisplay:10.37,2013-10-08 17:39:00,
2013-10-08 13:49:00,66.0,49.4,30.20,NE,40,0.0,0.0,55,0.00,CLR,FEW,0.00,WeatherDisplay:10.37,2013-10-08 17:49:00,
2013-10-08 13:59:00,66.0,49.4,30.20,NE,40,0.0,0.0,55,0.00,CLR,FEW,0.00,WeatherDisplay:10.37,2013-10-08 17:59:00,
2013-10-08 14:04:00,66.0,48.9,30.20,NE,40,0.0,0.0,54,0.00,CLR,FEW,0.00,WeatherDisplay:10.37,2013-10-08 18:04:00,
2013-10-08 14:09:00,66.4,49.7,30.20,NE,40,0.0,0.0,55,0.00,CLR,FEW,0.00,WeatherDisplay:10.37,2013-10-08 18:09:00,
2013-10-08 14:19:00,66.0,49.4,30.20,NE,40,0.0,0.0,55,0.00,CLR,FEW,0.00,WeatherDisplay:10.37,2013-10-08 18:19:00,
2013-10-08 14:29:00,66.2,49.1,30.20,NE,40,0.0,0.0,54,0.00,CLR,FEW,0.00,WeatherDisplay:10.37,2013-10-08 18:29:00,
2013-10-08 14:39:00,66.7,50.1,30.20,NE,40,0.0,0.0,55,0.00,CLR,FEW,0.00,WeatherDisplay:10.37,2013-10-08 18:39:00,
2013-10-08 14:49:00,66.6,49.4,30.17,NE,40,0.0,0.0,54,0.00,CLR,FEW,0.00,WeatherDisplay:10.37,2013-10-08 18:49:00,
2013-10-08 14:59:00,66.2,47.5,30.17,NE,40,0.0,0.0,51,0.00,CLR,FEW,0.00,WeatherDisplay:10.37,2013-10-08 18:59:00,
2013-10-08 15:04:00,68.7,51.4,30.17,NE,40,0.0,0.0,54,0.00,CLR,FEW,0.00,WeatherDisplay:10.37,2013-10-08 19:04:00,
2013-10-08 15:09:00,67.8,48.0,30.17,NE,40,0.0,0.0,49,0.00,CLR,FEW,0.00,WeatherDisplay:10.37,2013-10-08 19:09:00,
2013-10-08 15:19:00,66.6,46.8,30.17,NE,40,0.0,0.0,49,0.00,CLR,FEW,0.00,WeatherDisplay:10.37,2013-10-08 19:19:00,
2013-10-08 15:29:00,66.7,47.5,30.17,NE,40,0.0,0.0,50,0.00,CLR,FEW,0.00,WeatherDisplay:10.37,2013-10-08 19:29:00,
2013-10-08 15:39:00,67.1,48.9,30.17,East,79,1.0,7.0,52,0.00,CLR,FEW,0.00,WeatherDisplay:10.37,2013-10-08 19:39:00,
2013-10-08 15:49:00,66.7,48.0,30.17,ENE,75,5.0,5.0,51,0.00,CLR,FEW,0.00,WeatherDisplay:10.37,2013-10-08 19:49:00,
2013-10-08 15:54:00,66.6,47.3,30.17,ENE,73,5.0,6.0,50,0.00,CLR,FEW,0.00,WeatherDisplay:10.37,2013-10-08 19:54:00,
2013-10-08 15:59:00,66.7,49.1,30.17,NE,51,6.0,6.0,53,0.00,CLR,FEW,0.00,WeatherDisplay:10.37,2013-10-08 19:59:00,
2013-10-08 16:04:00,66.6,47.3,30.17,NE,45,5.0,5.0,50,0.00,CLR,FEW,0.00,WeatherDisplay:10.37,2013-10-08 20:04:00,
2013-10-08 16:09:00,66.7,49.6,30.17,NE,55,5.0,9.0,54,0.00,CLR,FEW,0.00,WeatherDisplay:10.37,2013-10-08 20:09:00,
2013-10-08 16:19:00,66.4,48.7,30.17,NE,41,6.0,7.0,53,0.00,CLR,FEW,0.00,WeatherDisplay:10.37,2013-10-08 20:19:00,
2013-10-08 16:29:00,66.6,48.9,30.17,North,350,6.0,6.0,53,0.00,CLR,FEW,0.00,WeatherDisplay:10.37,2013-10-08 20:29:00,
2013-10-08 16:39:00,66.6,46.8,30.17,East,85,5.0,6.0,49,0.00,CLR,FEW,0.00,WeatherDisplay:10.37,2013-10-08 20:39:00,
2013-10-08 16:49:00,66.2,49.1,30.17,East,95,3.0,3.0,54,0.00,CLR,FEW,0.00,WeatherDisplay:10.37,2013-10-08 20:49:00,
2013-10-08 16:59:00,66.0,48.9,30.17,East,92,2.0,7.0,54,0.00,CLR,FEW,0.00,WeatherDisplay:10.37,2013-10-08 20:59:00,
2013-10-08 17:04:00,65.8,50.2,30.17,East,85,2.0,0.0,57,0.00,CLR,FEW,0.00,WeatherDisplay:10.37,2013-10-08 21:04:00,
2013-10-08 17:09:00,65.5,50.3,30.17,East,85,2.0,0.0,58,0.00,CLR,FEW,0.00,WeatherDisplay:10.37,2013-10-08 21:09:00,
2013-10-08 17:14:00,66.0,48.9,30.17,East,82,1.0,5.0,54,0.00,CLR,FEW,0.00,WeatherDisplay:10.37,2013-10-08 21:14:00,
2013-10-08 17:19:00,65.8,49.2,30.17,NE,49,1.0,9.0,55,0.00,CLR,FEW,0.00,WeatherDisplay:10.37,2013-10-08 21:19:00,
2013-10-08 17:29:00,65.8,49.2,30.17,NE,48,5.0,5.0,55,0.00,CLR,FEW,0.00,WeatherDisplay:10.37,2013-10-08 21:29:00,
2013-10-08 17:39:00,65.1,51.3,30.17,NE,35,3.0,5.0,61,0.00,CLR,FEW,0.00,WeatherDisplay:10.37,2013-10-08 21:39:00,
2013-10-08 17:49:00,64.0,52.0,30.17,NNE,25,2.0,6.0,65,0.00,CLR,FEW,0.00,WeatherDisplay:10.37,2013-10-08 21:49:00,
2013-10-08 17:59:00,63.7,52.5,30.17,NNE,16,3.0,5.0,67,0.00,CLR,FEW,0.00,WeatherDisplay:10.37,2013-10-08 21:59:00,
2013-10-08 18:04:00,63.3,53.0,30.17,NNW,342,3.0,3.0,69,0.00,CLR,FEW,0.00,WeatherDisplay:10.37,2013-10-08 22:04:00,
2013-10-08 18:09:00,62.8,52.5,30.17,NNW,330,2.0,0.0,69,0.00,CLR,FEW,0.00,WeatherDisplay:10.37,2013-10-08 22:09:00,
2013-10-08 18:19:00,62.2,53.8,30.17,North,8,0.0,0.0,74,0.00,CLR,FEW,0.00,WeatherDisplay:10.37,2013-10-08 22:19:00,
2013-10-08 18:29:00,61.5,53.5,30.17,North,355,0.0,0.0,75,0.00,CLR,FEW,0.00,WeatherDisplay:10.37,2013-10-08 22:29:00,
2013-10-08 18:44:00,60.6,53.0,30.17,North,350,0.0,0.0,76,0.00,CLR,FEW,0.00,WeatherDisplay:10.37,2013-10-08 22:44:00,
2013-10-08 18:49:00,60.3,53.0,30.17,North,350,0.0,0.0,77,0.00,CLR,FEW,0.00,WeatherDisplay:10.37,2013-10-08 22:49:00,
2013-10-08 18:59:00,59.7,53.5,30.17,North,350,0.0,0.0,80,0.00,CLR,FEW,0.00,WeatherDisplay:10.37,2013-10-08 22:59:00,
2013-10-08 19:04:00,59.2,53.0,30.17,North,350,0.0,0.0,80,0.00,CLR,FEW,0.00,WeatherDisplay:10.37,2013-10-08 23:04:00,
2013-10-08 19:09:00,59.0,52.8,30.17,North,350,0.0,0.0,80,0.00,CLR,FEW,0.00,WeatherDisplay:10.37,2013-10-08 23:09:00,
2013-10-08 19:19:00,58.1,53.0,30.17,North,350,0.0,0.0,83,0.00,CLR,FEW,0.00,WeatherDisplay:10.37,2013-10-08 23:19:00,
2013-10-08 19:29:00,57.7,52.9,30.17,North,350,0.0,0.0,84,0.00,CLR,FEW,0.00,WeatherDisplay:10.37,2013-10-08 23:29:00,
2013-10-08 19:39:00,57.7,52.9,30.17,North,350,0.0,0.0,84,0.00,CLR,FEW,0.00,WeatherDisplay:10.37,2013-10-08 23:39:00,
2013-10-08 19:49:00,57.7,52.9,30.17,North,350,0.0,0.0,84,0.00,CLR,FEW,0.00,WeatherDisplay:10.37,2013-10-08 23:49:00,
2013-10-08 19:59:00,57.7,52.9,30.17,North,350,0.0,0.0,84,0.00,CLR,FEW,0.00,WeatherDisplay:10.37,2013-10-08 23:59:00,
2013-10-08 20:04:00,57.7,52.9,30.17,North,350,0.0,0.0,84,0.00,CLR,FEW,0.00,WeatherDisplay:10.37,2013-10-09 00:04:00,
2013-10-08 20:09:00,57.7,52.9,30.17,North,350,0.0,0.0,84,0.00,CLR,FEW,0.00,WeatherDisplay:10.37,2013-10-09 00:09:00,
2013-10-08 20:19:00,57.7,52.9,30.17,North,350,0.0,0.0,84,0.00,CLR,FEW,0.00,WeatherDisplay:10.37,2013-10-09 00:19:00,
2013-10-08 20:24:00,57.7,52.9,30.17,North,350,0.0,0.0,84,0.00,CLR,FEW,0.00,WeatherDisplay:10.37,2013-10-09 00:24:00,
2013-10-08 20:29:00,57.7,52.9,30.17,North,350,0.0,0.0,84,0.00,CLR,FEW,0.00,WeatherDisplay:10.37,2013-10-09 00:29:00,
2013-10-08 20:39:00,57.7,52.9,30.17,North,350,0.0,0.0,84,0.00,CLR,FEW,0.00,WeatherDisplay:10.37,2013-10-09 00:39:00,
2013-10-08 20:44:00,57.7,52.9,30.17,North,350,0.0,0.0,84,0.00,CLR,FEW,0.00,WeatherDisplay:10.37,2013-10-09 00:44:00,
2013-10-08 20:49:00,57.7,52.9,30.17,North,350,0.0,0.0,84,0.00,CLR,FEW,0.00,WeatherDisplay:10.37,2013-10-09 00:49:00,
2013-10-08 20:59:00,57.7,52.9,30.17,North,350,0.0,0.0,84,0.00,CLR,FEW,0.00,WeatherDisplay:10.37,2013-10-09 00:59:00,
2013-10-08 21:04:00,57.7,52.9,30.17,North,350,0.0,0.0,84,0.00,CLR,FEW,0.00,WeatherDisplay:10.37,2013-10-09 01:04:00,
2013-10-08 21:09:00,57.7,52.9,30.17,North,350,0.0,0.0,84,0.00,CLR,FEW,0.00,WeatherDisplay:10.37,2013-10-09 01:09:00,
2013-10-08 21:19:00,57.7,52.9,30.17,North,350,0.0,0.0,84,0.00,CLR,FEW,0.00,WeatherDisplay:10.37,2013-10-09 01:19:00,